Tracking 34406 objects as of 15-Jun-2026
HD Live streaming from Space Station
objects crossing your sky now

THORAD AGENA D DEB

Track THORAD AGENA D DEB now!
10-day predictions


NORAD ID: 4970
Int'l Code: 1970-025GQ
Perigee: 1,016.9 km
Apogee: 1,069.2 km
Inclination: 100.0 °
Period: 105.9 minutes
Semi major axis: 7414 km
RCS: 0.025 m2 (small)
Launch date: April 8, 1970
Source: United States (US)
Launch site: AIR FORCE WESTERN TEST RANGE (AFWTR)

Note: This is SATELLITE DEBRIS
Your satellite tracking list
Your tracking list is empty




NASA's NSSDC Master Catalog

Two Line Element Set (TLE):
1 04970U 70025GQ  26165.86608200  .00000337  00000-0  51254-3 0  9997
2 04970  99.9531 130.7151 0035270 234.7225 194.4608 13.59928349774247
Source of the keplerian elements: AFSPC